AO-07 1 07530U 74089B 18123.57622378 -.00000038 00000-0 39565-4 0 9992 2 07530 101.6833 091.5725 0012536 062.2548 050.9384 12.53632311988777 UO-11 1 14781U 84021B 18123.60371227 .00000061 00000-0 13747-4 0 9992 2 14781 097.6539 161.7098 0007417 221.4459 138.6194 14.82999644816834 LO-19 1 20442U 90005G 18123.52216769 .00000010 00000-0 19842-4 0 9998 2 20442 098.6076 062.2956 0010633 284.0317 075.9685 14.32894046477434 HUBBLE 1 20580U 90037B 18123.21579793 .00000431 00000-0 15421-4 0 9997 2 20580 28.4702 52.3890 0002720 21.5692 96.1603 15.09027783338677 MET-2/21 1 22782U 93055A 18123.56137267 .00000009 00000-0 -52979-5 0 9992 2 22782 082.5461 129.3508 0020920 251.1622 224.0396 13.83808509245731 AO-27 1 22825U 93061C 18122.18162672 -.00000007 00000-0 15296-4 0 9990 2 22825 098.8593 097.4731 0009366 117.2645 242.9491 14.30028572282728 IO-26 1 22826U 93061D 18123.46823711 -.00000003 00000-0 16373-4 0 9994 2 22826 098.8534 098.8258 0010008 104.8338 255.3953 14.30359982283116 FO-29 1 24278U 96046B 18123.56642199 -.00000025 00000-0 11879-4 0 9993 2 24278 098.5210 328.4644 0349577 226.5876 130.5675 13.53083199071953 NOAA-15 1 25338U 98030A 18123.56135939 .00000022 00000-0 27933-4 0 9999 2 25338 098.7720 139.9582 0010441 003.7481 356.3775 14.25849190038400 GO-32 1 25397U 98043D 18123.82416136 -.00000006 00000-0 16233-4 0 9992 2 25397 98.6470 65.0044 0002084 119.9828 240.1558 14.23644517 29411 ISS 1 25544U 98067A 18123.78478694 .00001483 00000-0 29582-4 0 9994 2 25544 51.6422 240.0593 0003433 44.7581 52.2890 15.54194992111612 NO-44 1 26931U 01043C 18123.60852478 -.00000015 00000-0 26202-4 0 9997 2 26931 067.0519 344.4374 0007238 280.5303 079.4983 14.30503139866101 SO-50 1 27607U 02058C 18123.68103161 -.00000014 00000-0 18767-4 0 9997 2 27607 64.5555 226.0736 0060253 338.4109 21.4453 14.75444007826397 CO-55 1 27844U 03031E 18123.56266920 .00000036 00000-0 35919-4 0 9993 2 27844 098.6880 132.8753 0010654 135.8961 224.3068 14.22109359769816 CO-57 1 27848U 03031J 18123.50958016 .00000025 00000-0 31344-4 0 9991 2 27848 098.6966 133.2061 0010377 145.4896 214.6957 14.21713840769687 RS-22 1 27939U 03042A 18123.77203635 .00000085 00000-0 23783-4 0 9997 2 27939 97.9834 264.0711 0011620 291.5778 174.7549 14.66680671780302 NOAA-18 1 28654U 05018A 18123.54682449 -.00000023 00000-0 12587-4 0 9999 2 28654 099.1494 158.0813 0013317 251.0765 108.8962 14.12374284667380 CO-58 1 28895U 05043F 18123.35837577 .00000134 00000-0 34533-4 0 9994 2 28895 097.9030 276.6457 0016218 206.7240 153.3128 14.63537789667081 Falconsat-3 1 30776U 07006E 18123.57202347 .00001763 00000-0 53332-4 0 9998 2 30776 035.4348 190.7322 0003139 332.9127 027.1435 15.34339959617466 CO-65 1 32785U 08021C 18123.73624412 .00000175 00000-0 24577-4 0 9992 2 32785 97.5491 138.0329 0013062 178.9564 181.1682 14.88104953542562 AAUSAT2 1 32788U 08021F 18123.62609495 .00000774 00000-0 77035-4 0 9999 2 32788 97.5254 151.9808 0013184 132.9243 227.3087 14.94307993543522 DO-64 1 32789U 08021G 18123.46324900 .00000657 00000-0 49215-4 0 9996 2 32789 097.5158 179.3994 0014313 091.4584 268.8283 15.05961033544958 CO-66 1 32791U 08021J 18123.49452922 .00000200 00000-0 25835-4 0 9994 2 32791 097.5388 143.0594 0013955 160.9099 199.2646 14.90528535542771 RS-30 1 32953U 08025A 18123.85333561 .00000006 00000-0 -27596-4 0 9996 2 32953 82.5063 40.2485 0018508 309.7912 50.1537 12.43082963451261 PRISM 1 33493U 09002B 18123.82883544 .00000699 00000-0 67509-4 0 9995 2 33493 98.1366 24.2090 0016726 100.2558 260.0533 14.96180614503712 NOAA-19 1 33591U 09005A 18123.50688654 .00000100 00000-0 79268-4 0 9999 2 33591 99.1388 100.6553 0015061 92.0986 268.1910 14.12274635475871 TISAT-1 1 36799U 10035E 18123.61589007 .00000221 00000-0 28533-4 0 9994 2 36799 098.0994 258.6692 0012181 001.8369 358.2891 14.90770168423315 JUGNU 1 37839U 11058B 18123.78034383 .00000320 00000-0 28931-4 0 9998 2 37839 19.9618 306.5261 0018941 117.1225 351.3573 14.12617540339082 SRMSAT 1 37841U 11058D 18123.79902547 .00000307 00000-0 23917-4 0 9992 2 37841 19.9734 354.6980 0011800 3.3641 68.0000 14.10604824338604 AO-71 1 37854U 11061E 18123.54971977 .00000691 00000-0 44235-4 0 9998 2 37854 101.7067 165.6599 0163996 205.7832 153.5139 15.05321723354663 HRBE 1 37855U 11061F 18123.57952463 .00001078 00000-0 63106-4 0 9999 2 37855 101.7206 163.2965 0176932 214.1885 144.7831 15.04303692354470 ALMASAT-1 1 38078U 12006B 18123.88151642 .00023721 38732-5 21476-3 0 9991 2 38078 69.4323 339.1402 0251992 173.8631 278.8458 15.37798078333831 HORYU-2 1 38340U 12025D 18123.58971731 .00000171 00000-0 33251-4 0 9991 2 38340 098.3690 143.7734 0011445 000.1462 359.9747 14.75538758310126 RS-40 1 38735U 12041C 18123.58810156 .00000004 00000-0 -44618-4 0 9995 2 38735 082.4720 124.4304 0017977 054.0054 306.2689 12.42576494261465 BEESAT-3 1 39134U 13015E 18123.56586551 .00001000 00000-0 56947-4 0 9992 2 39134 064.8635 271.2380 0017122 217.5842 142.4089 15.19053803277749 BEESAT-2 1 39136U 13015G 18123.79873063 .00000700 00000-0 46175-4 0 9994 2 39136 64.8693 285.9354 0025448 239.6429 120.2180 15.16059652277868 ZACUBE-1 1 39417U 13066B 18123.58543674 .00000185 00000-0 29903-4 0 9998 2 39417 097.5912 154.5958 0057703 302.1057 057.4563 14.80918911240194 TRITON-1 1 39427U 13066M 18123.57661700 .00000206 00000-0 40681-4 0 9999 2 39427 097.6405 122.4606 0115188 042.8915 318.1204 14.67647076237843 GOMX-1 1 39430U 13066Q 18123.86558489 .00000172 00000-0 39601-4 0 9996 2 39430 97.6947 103.9418 0152993 110.2357 251.5368 14.59061428236693 LO-74 1 39440U 13066AA 18123.59112562 .00000186 00000-0 33091-4 0 9997 2 39440 097.6038 141.4705 0079971 341.4906 018.3398 14.75653975238149 AO-73 1 39444U 13066AE 18123.60473355 .00000234 00000-0 35441-4 0 9998 2 39444 097.5920 156.0830 0056785 297.4797 062.0651 14.81691519238465 SPROUT 1 39770U 14029E 18123.77285248 .00000442 00000-0 55775-4 0 9993 2 39770 97.8744 225.1975 0009009 5.3910 354.7410 14.86791956213763 DUCHIFAT-1 1 40021U 14033M 18123.74477768 .00000302 00000-0 36983-4 0 9991 2 40021 97.9169 42.3823 0012320 331.5592 28.4952 14.90274426210336 NANOSATCBR1 1 40024U 14033Q 18123.29368964 .00000307 00000-0 38151-4 0 9995 2 40024 97.9107 40.2620 0011688 335.7223 24.3442 14.89541635210196 EO-79 1 40025U 14033R 18123.31593174 .00000284 00000-0 36395-4 0 9994 2 40025 97.9069 38.8030 0012020 339.5754 20.4980 14.88690593210117 DTUSAT-2 1 40030U 14033W 18123.26912732 .00000219 00000-0 29707-4 0 9996 2 40030 097.9017 037.5092 0011322 334.9406 025.1260 14.88300397209545 EO-80 1 40032U 14033Y 18123.72857421 .00000231 00000-0 31088-4 0 9991 2 40032 97.9023 37.9704 0011255 333.8316 26.2331 14.88237420210113 ANTELSAT 1 40034U 14033AA 18123.60211189 .00000198 00000-0 37069-4 0 9992 2 40034 097.8173 001.8531 0058585 343.1771 016.7494 14.73904797207587 VELOX-1 1 40057U 14034E 18123.74492920 .00000268 00000-0 45298-4 0 9998 2 40057 98.1980 234.0370 0012486 109.4714 250.7848 14.77401344207085 DAURIA DX 1 1 40071U 14037C 18123.76509633 .00000080 00000-0 17733-4 0 9994 2 40071 98.3677 253.1622 0009840 101.3913 258.8410 14.81149055206424 UKUBE-1 1 40074U 14037F 18123.71159370 .00000320 00000-0 45782-4 0 9993 2 40074 98.3806 258.7397 0005996 97.4057 262.7841 14.83775689206706 HODOYOSHI-1 1 40299U 14070B 18123.78007267 .00000497 00000-0 24186-4 0 9993 2 40299 97.3786 206.3369 0014502 51.8603 61.6574 15.22846512193727 CHUBUSAT-1 1 40300U 14070C 18123.76957493 .00000505 00000-0 25395-4 0 9992 2 40300 97.3662 202.4113 0021889 60.6364 54.0290 15.21513112193520 QSAT-EOS 1 40301U 14070D 18123.76274376 .00001339 00000-0 56640-4 0 9998 2 40301 97.3605 203.5195 0028074 51.7223 63.9756 15.24618213193659 FIREBIRD FU3 1 40377U 15003B 18123.60271289 .00002022 00000-0 86150-4 0 9990 2 40377 099.0911 016.5052 0132188 019.4591 341.1615 15.17059550179559 FIREBIRD FU4 1 40378U 15003C 18123.65780161 .00002131 00000-0 90428-4 0 9994 2 40378 99.0913 16.6268 0132391 19.1736 341.4407 15.17069746179578 GRIFEX 1 40379U 15003D 18123.67414753 .00001513 00000-0 69858-4 0 9994 2 40379 99.0948 13.0069 0139417 30.9814 329.9543 15.14219104179362 NO-84 1 40654U 15025D 18123.33080288 .00003365 00000-0 62127-4 0 02890 2 40654 054.9934 238.8249 0159845 356.5855 003.4068 15.39723779048938 NO-83 1 40655U 15025E 18123.43391920 .00011832 00000-0 13389-3 0 03344 2 40655 054.9760 186.4913 0114866 027.8350 332.8742 15.55269286049311 DEORBITSAIL 1 40719U 15032E 18123.52242781 .00000389 00000-0 63223-4 0 9998 2 40719 097.9496 017.7556 0015933 187.0240 173.0749 14.76402086151580 NUDT-PHONESAT 1 40900U 15049B 18123.83938395 .00001637 00000-0 76527-4 0 9993 2 40900 97.4423 132.6074 0013502 176.9203 183.2119 15.21133316145175 XW-2A 1 40903U 15049E 18123.80941499 .00001524 00000-0 39832-4 0 9995 2 40903 97.3886 158.2171 0014087 183.3397 176.7758 15.40321222146978 XW-2C 1 40906U 15049H 18123.80652199 .00000505 00000-0 30427-4 0 9993 2 40906 97.4604 128.1133 0015039 177.3747 182.7567 15.15133323144770 XW-2D 1 40907U 15049J 18123.82937713 .00000539 00000-0 32102-4 0 9993 2 40907 97.4577 127.8379 0014487 174.8570 185.2814 15.15280162144788 LILACSAT-2 1 40908U 15049K 18123.84883037 .00000259 00000-0 18078-4 0 9990 2 40908 97.4689 127.2727 0016076 176.9829 183.1503 15.13476949144667 XW-2F 1 40910U 15049M 18123.81248541 .00000823 00000-0 45665-4 0 9994 2 40910 97.4581 129.0561 0015315 171.0367 189.1143 15.16442801144732 XW-2B 1 40911U 15049N 18123.77922470 .00000562 00000-0 33343-4 0 9990 2 40911 97.4613 128.3096 0014396 175.5729 184.5633 15.15225572144672 DCBB 1 40912U 15049P 18123.68008934 .00001043 00000-0 53525-4 0 9990 2 40912 97.4502 131.6389 0015829 159.6044 292.1155 15.18648861144912 TW-1C 1 40926U 15051B 18123.87489079 .00006335 00000-0 12137-3 0 9994 2 40926 97.1873 166.4333 0012067 82.2377 330.0562 15.48307207146455 TW-1A 1 40928U 15051D 18123.78587000 .00002382 00000-0 64693-4 0 9992 2 40928 97.1891 158.6479 0013660 117.7139 331.0873 15.38474512145954 IO-86 1 40931U 15052B 18122.60081376 .00000508 00000-0 -18396-4 0 9990 2 40931 005.9937 115.1140 0013129 081.1408 279.0663 14.76571902140250 LQSat 1 40958U 15057A 18123.74042601 .00000017 00000-0 10421-4 0 9993 2 40958 97.9422 197.8538 0019354 116.9286 243.3898 14.73028140138309 AO-85 1 40967U 15058D 18123.06640186 .00000135 00000-0 32743-4 0 03155 2 40967 064.7768 328.2485 0203064 327.7102 031.1697 14.75700551046995 ATHENOXAT-1 1 41168U 15077C 18123.85028750 .00001947 00000-0 70096-4 0 9997 2 41168 14.9908 344.7617 0011765 142.3173 314.8244 15.12682804131655 ChubuSat-2 1 41338U 16012B 18123.59505440 .00000302 00000-0 16882-4 0 9990 2 41338 031.0028 236.9588 0013958 351.3574 008.6820 14.99965163121135 ChubuSat-3 1 41339U 16012C 18123.68093647 .00000279 00000-0 15056-4 0 9997 2 41339 31.0105 235.0704 0013840 357.9134 2.1437 15.00153841121134 Horyu-4 1 41340U 16012D 18123.56466477 .00000438 00000-0 26779-4 0 9992 2 41340 031.0047 230.8893 0014183 010.2938 349.7986 15.00958920121180 OUFTI-1 1 41458U 16025C 18123.68000196 .00000805 00000-0 46749-4 0 9998 2 41458 98.1400 184.1445 0168445 297.3210 61.0930 15.04531248110740 e-st@r-II 1 41459U 16025D 18123.67910260 .00000704 00000-0 41688-4 0 9995 2 41459 98.1402 184.0014 0169311 297.9690 60.4473 15.04273366110733 AAUSAT4 1 41460U 16025E 18123.76566365 .00001548 00000-0 84698-4 0 9995 2 41460 98.1342 184.5242 0161277 293.7828 64.6534 15.05652645110800 LO-87 1 41557U 16033B 18123.70863364 .00001087 00000-0 42227-4 0 9994 2 41557 97.4366 208.0113 0012616 320.3528 39.6788 15.28220351107360 NuSat2 1 41558U 16033C 18123.77692584 .00001052 00000-0 41153-4 0 9995 2 41558 97.4394 208.1694 0012003 319.0348 40.9989 15.28065644107362 Lapan A3 1 41603U 16040E 18123.76336630 .00000223 00000-0 13654-4 0 9994 2 41603 97.4154 186.0836 0014675 41.1248 79.5123 15.19548833103335 Swayam 1 41607U 16040J 18123.15708830 .00001355 00000-0 62089-4 0 9999 2 41607 097.4167 186.7657 0014873 042.4151 317.8232 15.22091721103251 Pratham 1 41783U 16059A 18123.61069867 .00000060 00000-0 21056-4 0 9996 2 41783 098.1212 185.8814 0032522 234.1260 125.6921 14.62917082085442 AlSat 1N 1 41789U 16059G 18123.74222076 .00000081 00000-0 24595-4 0 9993 2 41789 98.1220 187.1426 0027315 225.4025 134.4945 14.64147365 85510 ScatSat 1 41790U 16059H 18123.55458190 .00000006 00000-0 12750-4 0 9999 2 41790 098.2642 172.1435 0017268 225.7846 134.1932 14.50869721084711 TY-1 1 41844U 16066D 18123.72948081 .00001101 00000-0 49558-4 0 9992 2 41844 97.4058 131.2869 0015153 186.4703 260.8225 15.23119739 82118 Pegasus-1 1 41846U 16066F 18123.70585760 .00000228 00000-0 45101-4 0 9992 2 41846 98.7578 151.2379 0368721 19.1549 342.3090 14.37314171 77516 CAS-2T 1 41847U 16066G 18123.64665049 .00000043 00000-0 17093-4 0 9999 2 41847 98.7541 151.5999 0366611 16.9900 344.3190 14.37884803 77922 TO-89 1 41932U 98067KU 18123.50839983 .00022831 00000-0 16364-3 0 9998 2 41932 051.6363 210.6227 0005141 015.7009 344.4148 15.73578704073722 AOBA-V3LOX3 1 41935U 98067KX 18123.49659696 .00029626 00000-0 18548-3 0 9995 2 41935 051.6353 207.4931 0005084 011.9377 348.1742 15.76542857073861 EO-88 1 42017U 17008BX 18123.52498167 .00001343 00000-0 57895-4 0 9996 2 42017 097.4515 188.8429 0006912 163.0464 197.1005 15.24295004067265 HAVELSAT 1 42700U 98067LH 18123.65717736 .00019839 00000-0 17385-3 0 9997 2 42700 51.6357 222.1200 0003774 59.6801 300.4569 15.68864264 55020 SOMP2 1 42701U 98067LJ 18123.68396968 .00018178 00000-0 16477-3 0 9997 2 42701 51.6359 223.0497 0003891 61.4618 298.6770 15.68101431 55008 PHOENIX 1 42706U 98067LP 18123.69410229 .00014658 00000-0 13758-3 0 9998 2 42706 51.6359 223.1230 0001958 2.8741 357.2266 15.67432466 54923 X-CubeSat 1 42707U 98067LQ 18123.65112644 .00021298 00000-0 18329-3 0 9992 2 42707 51.6330 222.0305 0002464 357.4400 2.6584 15.69258049 54927 qbee 1 42708U 98067LR 18123.63930008 .00019950 00000-0 17696-3 0 9991 2 42708 51.6366 222.7406 0002259 359.2402 0.8591 15.68565409 54872 ZA-AeroSat 1 42713U 98067LU 18123.68649597 .00014943 00000-0 14724-3 0 9998 2 42713 51.6353 225.3125 0002984 356.5180 3.5795 15.66197264 54558 LINK 1 42714U 98067LV 18123.67036165 .00040043 00000-0 26517-3 0 9992 2 42714 51.6288 217.5958 0004788 347.9030 12.1854 15.75100458 54769 UPSat 1 42716U 98067LX 18123.67860035 .00029998 00000-0 22512-3 0 9992 2 42716 51.6337 219.2293 0002888 31.0930 329.0239 15.72333894 54762 SpaceCube 1 42717U 98067LY 18123.66434317 .00019690 00000-0 17503-3 0 9994 2 42717 51.6341 222.8975 0002696 50.1467 309.9767 15.68521854 53952 Hoopoe 1 42718U 98067LZ 18123.69897339 .00025892 00000-0 21050-3 0 9998 2 42718 51.6352 220.8838 0002824 36.7556 323.3635 15.70507715 53983 Challenger 1 42721U 98067MA 18123.66032677 .00057579 00000-0 31652-3 0 9991 2 42721 51.6294 214.5141 0005958 18.4891 341.6326 15.79141002 53767 NJUST-1 1 42722U 98067MB 18123.65799736 .00013167 00000-0 13482-3 0 9993 2 42722 51.6363 226.6372 0005520 55.0030 305.1483 15.65347283 53608 UNSW-EC0 1 42723U 98067MC 18123.65282355 .00026670 00000-0 21249-3 0 9991 2 42723 51.6369 221.3499 0004966 38.5257 321.6095 15.70966748 53653 DUTHsat 1 42724U 98067MD 18123.63639344 .00048368 00000-0 28276-3 0 9999 2 42724 51.6348 215.8990 0005092 20.1351 339.9850 15.77849193 53649 LO-90 1 42725U 98067ME 18123.63599625 .00018620 00000-0 17390-3 0 9990 2 42725 51.6362 224.9860 0004479 49.0156 311.1227 15.67338883 53530 nSIGHT1 1 42726U 98067MF 18123.69846333 .00006387 00000-0 81082-4 0 9995 2 42726 51.6389 231.4517 0005576 65.2568 294.9005 15.60848385 53457 SNUSAT 1B 1 42727U 98067MG 18123.64494994 .00017868 00000-0 16777-3 0 9997 2 42727 51.6345 225.0026 0006694 19.6075 340.5178 15.67227677 53497 QBITO 1 42728U 98067MH 18123.69479955 .00022010 00000-0 19404-3 0 9998 2 42728 51.6379 223.1709 0002699 32.3024 327.8137 15.68644154 53362 Aalto-2 1 42729U 98067MJ 18123.68068352 .00022278 00000-0 19461-3 0 9992 2 42729 51.6356 223.0311 0002744 31.1145 329.0014 15.68860362 53378 SUSat 1 42730U 98067MK 18123.63546500 .00018314 00000-0 16835-3 0 9993 2 42730 51.6358 224.2202 0002683 37.2286 322.8896 15.67750809 53348 i-INSPIRE II 1 42731U 98067ML 18123.66132549 .00028624 00000-0 22280-3 0 9997 2 42731 51.6342 220.5965 0006658 4.8318 355.2743 15.71471547 53445 PolyITAN-2-SAU 1 42732U 98067MM 18123.65085058 .00020591 00000-0 17855-3 0 9996 2 42732 51.6352 222.8021 0006534 5.5577 354.5491 15.69079712 53417 ExAlta-1 1 42734U 98067MP 18123.65828697 .00028970 00000-0 22195-3 0 9994 2 42734 51.6324 220.5600 0006880 23.4514 336.6797 15.71840617 53390 Aoxiang-1 1 42735U 98067MQ 18123.69526653 .00014164 00000-0 14306-3 0 9991 2 42735 51.6355 226.1171 0006021 52.1047 308.0492 15.65613825 54744 BeEagleSat 1 42736U 98067MR 18123.66137070 .00015705 00000-0 15094-3 0 9997 2 42736 51.6353 225.1324 0005711 49.9566 310.1930 15.66765065 53449 CAS-4B 1 42759U 17034B 18123.58702422 .00000109 00000-0 20308-4 0 9994 2 42759 43.0210 328.1078 0008687 195.6197 197.8283 15.09265248 48715 CAS-4A 1 42761U 17034D 18123.56993762 .00000198 00000-0 25719-4 0 9993 2 42761 43.0202 328.0008 0009209 196.5256 191.2031 15.09342122 48703 UCLSat 1 42765U 17036A 18123.16755030 .00001070 00000-0 50265-4 0 9993 2 42765 97.4048 183.7346 0010596 228.6285 131.4041 15.21728032 47864 NIUSat 1 42766U 17036B 18123.24676337 .00000827 00000-0 41153-4 0 9990 2 42766 97.4049 183.1856 0015080 216.3197 143.7016 15.20290474 47709 LituanicaSAT 2 1 42768U 17036D 18123.73585678 .00001649 00000-0 76912-4 0 9997 2 42768 97.4062 183.9196 0014860 216.6465 143.3755 15.21171627 47803 Aalto 1 1 42775U 17036L 18123.28849541 .00000701 00000-0 35005-4 0 9993 2 42775 097.4043 183.4190 0013261 216.2044 143.8295 15.20664381047674 URSA MAIOR 1 42776U 17036M 18123.60626911 .00000746 00000-0 36992-4 0 9999 2 42776 097.4049 183.7734 0013138 215.0675 144.9697 15.20736738047728 Max Valier Sat 1 42778U 17036P 18123.78121416 .00000822 00000-0 39912-4 0 9990 2 42778 97.4072 184.2239 0011644 218.8891 141.1508 15.21206304 47758 Pegasus 1 42784U 17036V 18123.72555676 .00000975 00000-0 46332-4 0 9993 2 42784 97.4051 184.2206 0011151 226.8553 133.1751 15.21543970 47757 NUDATSat 1 42787U 17036Y 18123.59419507 .00001427 00000-0 65358-4 0 9995 2 42787 097.4057 184.2516 0010734 226.5485 133.4859 15.22066771047580 SUCHAI 1 1 42788U 17036Z 18123.82188203 .00001116 00000-0 52173-4 0 9994 2 42788 97.4051 184.3955 0010787 226.0479 133.9868 15.21792358 47849 SKCUBE 1 42789U 17036AA 18123.16278001 .00001095 00000-0 51334-4 0 9992 2 42789 097.4050 183.7450 0010583 228.5976 131.4351 15.21763119047668 VZLUSAT 1 1 42790U 17036AB 18123.58415723 .00001412 00000-0 64674-4 0 9998 2 42790 097.4053 184.2496 0010275 226.8147 133.2231 15.22091770047731 VENTA 1 1 42791U 17036AC 18123.60618281 .00000942 00000-0 44495-4 0 9992 2 42791 097.4049 184.2179 0010224 227.4293 132.6082 15.21820848047729 Robusta 1B 1 42792U 17036AD 18123.59582769 .00001089 00000-0 50869-4 0 9997 2 42792 097.4049 184.2249 0010161 227.8088 132.2286 15.21902455047743 D-SAT 1 42794U 17036AF 18123.81385278 .00000237 00000-0 25911-4 0 9994 2 42794 97.5958 180.1365 0128625 70.2093 291.2942 14.90841131 47114 BIRD-J 1 42820U 98067MU 18123.51539761 .00015602 00000-0 15526-3 0 9994 2 42820 051.6355 227.9140 0003672 348.9542 011.1372 15.65905876046873 BIRD-G 1 42821U 98067MV 18123.68147499 .00015515 00000-0 15703-3 0 9996 2 42821 51.6354 227.5242 0003593 352.3112 7.7828 15.65484166 46855 BIRD-M 1 42822U 98067MW 18123.54159487 .00015363 00000-0 15441-3 0 9992 2 42822 051.6356 228.0931 0003596 353.0776 007.0169 15.65669793046858 BIRD-B 1 42823U 98067MX 18123.66759859 .00015538 00000-0 15558-3 0 9998 2 42823 51.6362 227.4495 0005795 14.4218 345.6942 15.65744675 46859 BIRD-N 1 42824U 98067MY 18123.55889103 .00015683 00000-0 15804-3 0 9998 2 42824 051.6367 228.2371 0005702 014.2500 345.8656 15.65575633046857 TechnoSat 1 42829U 17042E 18123.86410884 .00000193 00000-0 25071-4 0 9995 2 42829 97.6002 27.8781 0014083 353.6600 6.4438 14.90804992 43720 TOMSK-TPU 120 1 42910U 98067MZ 18123.52330044 .00011329 00000-0 12816-3 0 9999 2 42910 051.6354 231.7072 0006250 037.3746 322.7682 15.62957302040393 TANYUSHA 1 1 42911U 98067NA 18123.66021885 .00013133 00000-0 14313-3 0 9994 2 42911 51.6363 230.4060 0005915 31.1877 328.9467 15.63753129 40404 TANYUSHA 2 1 42912U 98067NB 18123.71163256 .00012850 00000-0 14282-3 0 9990 2 42912 51.6371 230.7177 0005245 42.4783 317.6616 15.63274659 40422 SFERA 2 1 42913U 98067NC 18123.65685506 .00027720 00000-0 23643-3 0 9994 2 42913 51.6342 225.8307 0004116 28.9471 331.1754 15.69300319 40445 TNS 0-2 1 42914U 98067ND 18123.75449316 .00011840 00000-0 13480-3 0 9997 2 42914 51.6366 231.0363 0005285 37.8151 322.3213 15.62743187 40411 QIKCOM-1 1 42983U 98067NF 18123.76707339 .00002636 00000-0 44176-4 0 9996 2 42983 51.6401 238.6557 0004560 36.6386 323.4917 15.55949018 29308 AO-91 1 43017U 17073E 18123.60076464 .00000828 00000-0 69787-4 0 9990 2 43017 097.7057 056.5958 0261376 056.9426 305.6597 14.78003802024528 EcAMSat 1 43019U 98067NG 18123.67121462 .00003991 00000-0 61824-4 0 9998 2 43019 51.6400 238.7660 0005226 10.1853 349.9244 15.56608611111614 PICSAT 1 43132U 18004X 18123.42010935 .00000958 00000-0 44408-4 0 9991 2 43132 097.5377 185.9725 0008445 251.9043 108.1274 15.22513138016905 AO-92 1 43137U 18004AC 18123.14806488 .00000883 00000-0 41095-4 0 9997 2 43137 097.5373 185.7179 0007949 255.3773 104.6582 15.22607423016862 TianYi 2 1 43155U 18008A 18123.84715038 .00000199 00000-0 15967-4 0 9997 2 43155 97.5260 199.0721 0016578 300.6081 167.4421 15.10477875 15795 Zhou Enlai 1 43156U 18008B 18123.75431633 .00001107 00000-0 72079-4 0 9991 2 43156 97.5312 198.9529 0013627 296.9879 178.0368 15.09938192 15770 TianYi 6 1 43158U 18008D 18123.77462988 .00000360 00000-0 26262-4 0 9995 2 43158 97.5264 198.8770 0012621 294.5958 187.7588 15.09646507 15755 S-Net G 1 43186U 18014G 18123.68908434 .00000659 00000-0 63169-4 0 9992 2 43186 97.7277 32.7298 0009688 305.6338 54.3980 14.96429441 13662 S-Net H 1 43187U 18014H 18123.75590080 .00000663 00000-0 63533-4 0 9995 2 43187 97.7276 32.7939 0009681 305.3467 54.6849 14.96430381 13670 S-Net J 1 43188U 18014J 18123.75584836 .00000662 00000-0 63512-4 0 9994 2 43188 97.7278 32.7967 0009679 305.4824 54.5494 14.96431236 13674 S-Net K 1 43189U 18014K 18123.75591451 .00000663 00000-0 63544-4 0 9992 2 43189 97.7276 32.7933 0009688 305.4296 54.6020 14.96430052 12220 FMN 1 1 43192U 18015A 18123.61468139 .00001599 00000-0 71603-4 0 9992 2 43192 097.3490 253.4463 0015690 303.6742 056.2999 15.22616600013739 Shaonian Xing 1 43199U 18015H 18123.62291124 .00001058 00000-0 47093-4 0 9994 2 43199 097.3264 253.3233 0016737 318.0674 041.9284 15.23537967013755 /EX